Probability
3 3 3 3 3 0 0 0 0 0 0 0 0 0 0 0 0 0 0 0 0 0 0 0 0 0 0 0 0 0 0 0 0 0 0 0 3 6
3 3 3 3 3 3 3 3 0 0 0 0 0 0 0 0 0 0 0 0 0 0 0 0 0 0 0 0 0 0 0 0 0 0 0 0 0 0
3 3 3 3 3 3 3 3 3 0 0 0 0 0 0 0 0 0 0 0 0 0 0 0 0 0 0 0 0 0 0 0 0 0 0 0 0 0
3 3 3 3 3 3 3 3 3 0 0 0 0 0 0 0 0 0 0 0 0 0 0 0 0 0 0 0 0 0 0 0 0 0 0 0 0 0
10 10 10 6 6 3 3 0 0 0 0 0 0 0 0 0 0 0 0 0 0 0 0 0 0 0 0 0 0 0 0 0 0 0 0 0 0 0
10 10 6 6 6 3 3 0 0 0 0 0 0 0 0 0 0 0 0 0 0 0 0 0 0 0 0 0 0 0 0 0 0 0 0 0 0 0
13 13 13 6 10 3 6 3 0 0 0 0 0 0 0 0 0 0 0 0 0 0 0 0 0 0 0 0 0 0 0 0 0 0 0 0 0 0
6 6 6 3 6 3 0 0 0 0 3 0 0 0 0 0 0 0 0 0 0 0 0 0 0 0 0 0 0 0 0 0 0 0 0 0 0 0
3 3 6 6 3 0 0 0 0 0 0 0 0 0 0 0 0 0 0 0 0 0 0 0 0 0 0 0 0 0 0 0 0 0 0 0 0 0
3 3 0 0 0 0 0 0 0 0 0 0 0 0 0 0 0 0 0 0 0 0 0 0 0 0 0 0 0 0 0 0 0 0 0 0 0 0
0 0 0 0 0 0 0 0 0 0 0 0 0 0 0 0 0 0 0 0 0 0 0 0 0 0 0 0 0 0 0 0 0 0 0 0 0 0
0 0 0 0 0 0 0 0 0 0 0 0 0 0 0 0 0 0 0 0 0 0 0 0 0 0 0 0 0 0 0 0 0 0 0 0 0 0
0 0 0 0 0 0 0 0 0 0 0 0 0 0 0 0 0 0 0 0 0 0 0 0 0 0 0 0 0 0 0 0 0 0 0 0 0 0
0 0 0 0 0 0 0 0 0 0 0 0 0 0 0 0 0 0 0 0 0 0 0 0 0 0 0 0 0 0 0 0 0 0 0 0 0 0
0 0 0 0 0 0 0 0 0 0 0 0 0 0 0 0 0 0 0 0 0 0 0 0 0 0 0 0 0 0 0 0 0 0 0 0 0 0
0 0 0 0 0 0 0 0 0 0 0 0 0 0 0 0 0 0 0 0 0 0 0 0 0 0 0 0 0 0 0 0 0 0 0 0 0 0
0 0 0 0 0 0 0 0 0 0 0 0 0 0 0 0 0 0 0 0 0 0 0 0 0 0 0 0 0 0 0 0 0 0 0 0 0 0
0 0 0 0 0 0 0 0 0 0 0 0 0 0 0 0 0 0 0 0 0 0 0 0 0 0 0 0 0 0 0 0 0 0 0 0 0 0
0 0 0 0 0 0 0 0 0 0 0 0 0 0 0 0 0 0 0 0 0 0 0 0 0 0 0 0 0 0 0 0 0 0 0 0 0 0
0 0 0 0 0 0 0 0 0 0 0 0 0 0 0 0 0 0 0 0 0 0 0 0 0 0 0 0 0 0 0 0 0 0 0 0 0 0
0 0 0 0 0 0 0 0 0 0 0 0 0 0 0 0 0 0 0 0 0 0 0 0 0 0 0 0 0 0 0 0 0 0 0 0 0 0
0 0 0 0 0 0 0 0 0 0 0 0 0 0 0 0 0 0 0 0 0 0 0 0 0 0 0 0 0 0 0 0 0 0 0 0 0 0
0 0 0 0 0 0 0 0 0 0 0 0 0 0 0 0 0 0 0 0 0 0 0 0 0 0 0 0 0 0 0 0 0 0 0 0 0 0
Height
5891 5891 5890 5890 5890 5890 5889 5889 5889 5888 5887 5886 5885 5884 5883 5882 5880 5879 5878 5877 5876 5875 5873 5871 5870 5868 5867 5865 5863 5861 5859 5857 5855 5853 5851 5849 5847 5844
5886 5887 5886 5886 5886 5885 5885 5884 5884 5883 5882 5881 5880 5879 5877 5876 5875 5873 5872 5871 5870 5868 5866 5864 5863 5861 5860 5858 5856 5854 5852 5850 5848 5846 5844 5841 5839 5836
5882 5882 5882 5881 5881 5881 5880 5879 5878 5878 5877 5876 5874 5873 5872 5870 5869 5867 5866 5865 5863 5861 5860 5858 5856 5854 5852 5850 5848 5847 5845 5843 5840 5838 5836 5833 5830 5828
5878 5877 5877 5876 5876 5875 5875 5874 5873 5872 5871 5870 5868 5867 5866 5864 5863 5861 5860 5858 5856 5855 5852 5850 5849 5847 5845 5843 5841 5839 5837 5835 5833 5830 5828 5825 5822 5820
5873 5872 5872 5871 5871 5870 5869 5868 5867 5866 5865 5864 5863 5861 5860 5858 5856 5855 5853 5851 5849 5847 5845 5843 5841 5839 5837 5835 5833 5831 5829 5827 5824 5822 5819 5817 5814 5811
5868 5867 5866 5866 5865 5864 5863 5862 5861 5860 5858 5857 5856 5854 5853 5851 5850 5848 5846 5844 5842 5840 5838 5836 5834 5831 5829 5827 5825 5823 5821 5818 5815 5813 5810 5807 5804 5801
5862 5861 5861 5860 5859 5858 5857 5856 5854 5853 5852 5850 5849 5847 5846 5844 5842 5840 5838 5836 5834 5832 5830 5828 5826 5823 5821 5819 5817 5815 5812 5809 5806 5804 5801 5798 5795 5792
5856 5855 5854 5853 5852 5851 5851 5849 5848 5846 5845 5843 5842 5840 5838 5836 5834 5832 5830 5828 5826 5824 5822 5820 5818 5815 5813 5811 5808 5806 5803 5800 5797 5794 5791 5789 5786 5782
5850 5849 5848 5847 5846 5845 5844 5842 5841 5839 5837 5836 5834 5832 5830 5828 5826 5824 5822 5820 5817 5815 5813 5811 5809 5807 5805 5802 5799 5796 5794 5791 5788 5785 5782 5779 5776 5772
5844 5842 5841 5840 5839 5837 5836 5835 5833 5831 5830 5828 5826 5824 5822 5820 5818 5816 5813 5810 5808 5807 5805 5803 5800 5798 5795 5793 5790 5787 5784 5781 5779 5776 5772 5769 5766 5762
5837 5836 5834 5833 5832 5830 5829 5827 5826 5824 5821 5819 5817 5815 5813 5811 5809 5807 5805 5802 5800 5798 5796 5794 5791 5789 5786 5783 5781 5778 5775 5772 5769 5766 5762 5759 5756 5753
5830 5828 5827 5825 5824 5822 5820 5819 5817 5815 5813 5811 5809 5807 5805 5802 5800 5798 5796 5793 5791 5789 5787 5784 5782 5779 5777 5774 5771 5768 5765 5762 5759 5756 5753 5750 5746 5743
5823 5821 5819 5818 5816 5814 5812 5810 5808 5806 5804 5802 5800 5797 5795 5793 5791 5788 5786 5783 5781 5779 5777 5774 5772 5769 5767 5764 5761 5758 5755 5752 5749 5746 5743 5740 5737 5734
5815 5813 5811 5809 5807 5805 5803 5801 5799 5797 5795 5793 5790 5788 5786 5783 5781 5778 5775 5773 5771 5769 5767 5764 5762 5759 5757 5754 5751 5748 5745 5742 5740 5737 5734 5731 5728 5725
5807 5805 5803 5801 5798 5796 5794 5792 5790 5787 5785 5783 5781 5778 5776 5773 5771 5768 5765 5763 5761 5759 5757 5754 5752 5749 5747 5744 5741 5738 5736 5733 5730 5728 5725 5722 5719 5715
5797 5795 5793 5791 5789 5787 5784 5782 5780 5777 5775 5773 5770 5768 5765 5763 5760 5758 5756 5753 5751 5749 5746 5744 5742 5739 5737 5734 5732 5729 5726 5724 5721 5718 5715 5712 5709 5706
5788 5786 5783 5781 5779 5776 5774 5772 5769 5767 5765 5762 5760 5757 5755 5752 5750 5748 5746 5743 5741 5739 5736 5734 5731 5729 5727 5724 5722 5720 5717 5714 5712 5709 5706 5703 5700 5697
5778 5776 5773 5771 5768 5766 5764 5761 5759 5757 5754 5752 5749 5747 5744 5742 5740 5737 5735 5733 5731 5728 5726 5724 5721 5719 5717 5715 5713 5710 5708 5705 5702 5699 5696 5693 5690 5687
5768 5765 5763 5760 5758 5755 5753 5750 5748 5746 5743 5741 5738 5736 5733 5731 5729 5727 5724 5722 5720 5718 5716 5714 5712 5709 5707 5705 5702 5700 5698 5695 5693 5690 5687 5684 5681 5678
5757 5754 5752 5749 5746 5744 5741 5739 5737 5734 5732 5730 5727 5725 5723 5720 5718 5716 5714 5712 5710 5708 5706 5704 5702 5700 5698 5695 5693 5691 5688 5686 5683 5680 5678 5675 5672 5669
5745 5743 5740 5737 5735 5732 5730 5728 5726 5723 5721 5718 5716 5714 5712 5710 5708 5706 5704 5702 5700 5698 5696 5694 5692 5690 5688 5686 5684 5681 5679 5676 5673 5671 5668 5666 5663 5661
5734 5732 5729 5726 5724 5722 5719 5717 5715 5712 5710 5708 5706 5704 5702 5700 5697 5695 5693 5691 5689 5687 5685 5684 5682 5680 5678 5676 5673 5671 5669 5667 5664 5662 5659 5657 5655 5652
5723 5721 5718 5715 5713 5710 5708 5706 5703 5701 5699 5697 5695 5693 5691 5689 5687 5685 5683 5681 5679 5677 5675 5673 5671 5670 5668 5666 5664 5662 5660 5657 5655 5653 5651 5648 5646 5644
Wind_Speed
15 15 14 14 15 15 16 16 16 16 17 18 18 19 20 21 20 21 21 22 22 23 24 25 25 26 27 28 27 28 28 28 29 30 30 31 31 32
15 15 15 16 16 16 17 17 17 18 18 19 20 20 21 22 22 23 23 24 24 24 25 25 26 27 29 29 29 29 30 30 31 31 31 31 31 32
17 17 17 17 17 18 18 18 19 19 18 20 21 22 22 23 23 23 24 24 25 26 26 26 28 29 29 29 29 30 30 30 30 30 30 30 31 32
17 18 19 19 19 19 20 20 20 20 20 20 21 22 23 23 24 24 24 25 26 27 27 27 28 28 28 28 29 29 29 29 30 31 31 31 32 33
18 18 19 19 20 20 21 21 21 22 22 21 22 23 25 25 25 25 25 26 26 27 27 27 27 28 28 28 29 29 30 31 32 32 32 33 34 34
19 19 20 20 20 21 21 22 22 22 23 23 23 24 25 26 26 26 27 27 28 28 28 28 28 28 29 29 29 30 32 33 33 33 34 34 34 34
20 21 21 21 21 21 21 22 23 23 24 25 25 25 26 26 27 28 28 29 29 29 29 29 28 29 29 30 31 32 33 33 33 33 34 34 35 36
21 22 22 22 22 22 22 23 23 24 25 26 26 26 27 27 28 29 29 30 29 30 31 30 30 30 30 31 32 33 33 33 33 33 34 35 37 37
20 21 22 22 22 23 23 24 24 25 26 27 27 28 28 28 29 29 30 30 30 31 31 31 31 32 32 32 33 33 33 34 34 35 35 37 37 37
20 21 22 22 23 24 25 25 25 26 27 28 28 28 28 29 29 30 31 32 31 30 31 32 33 34 34 34 33 32 33 34 35 36 37 37 37 36
22 23 23 24 24 25 26 26 27 28 29 29 29 29 30 30 30 31 32 32 32 31 32 33 33 34 34 33 33 33 34 35 35 36 36 36 35 35
23 24 24 24 25 27 28 28 29 29 29 30 30 31 31 32 33 33 33 33 33 33 33 34 34 34 33 33 34 35 35 36 36 36 35 35 34 35
25 25 26 26 27 28 28 29 30 30 30 30 31 31 32 33 34 34 34 34 34 34 34 34 34 34 34 35 35 35 35 35 35 34 33 34 34 34
26 27 27 28 28 28 29 30 30 31 31 31 32 32 33 33 34 34 35 34 34 34 34 34 34 34 35 35 35 34 34 33 33 33 33 34 34 34
29 29 29 29 30 30 31 32 32 32 32 32 33 33 34 34 34 34 35 35 35 35 35 35 34 34 35 35 35 34 33 32 32 33 34 34 34 34
31 32 32 32 32 32 33 33 33 33 34 34 34 34 35 35 34 34 35 35 35 35 35 34 34 34 33 33 33 33 33 33 34 34 34 35 35 35
33 33 33 34 34 34 34 34 35 34 34 34 34 34 35 34 35 35 35 34 35 34 34 34 34 33 33 33 34 33 33 34 35 35 34 34 34 34
34 35 35 35 35 35 35 36 36 35 34 34 35 35 35 35 35 35 34 34 34 33 34 33 33 33 33 33 33 33 34 34 34 34 34 34 33 33
35 36 36 36 37 36 36 36 36 36 36 36 36 36 36 36 35 35 34 34 34 34 34 33 33 33 33 34 33 33 33 34 34 34 34 33 32 32
37 37 36 37 37 37 36 36 36 36 36 35 35 36 36 35 34 33 33 33 33 34 33 32 33 33 33 33 33 33 34 34 34 33 33 32 32 31
37 37 36 36 36 36 36 36 36 36 35 35 35 34 34 33 32 32 33 33 33 33 34 33 33 32 32 32 33 33 33 33 32 32 31 31 31 30
36 36 36 35 35 35 35 36 36 35 34 34 34 33 33 32 32 33 33 33 33 33 32 32 32 32 32 33 32 32 31 31 31 30 30 30 30 29
35 35 35 35 35 35 35 35 35 34 34 34 33 33 33 34 34 33 33 33 33 32 32 32 31 31 31 30 30 30 30 30 30 30 29 29 29 29
Wind_Direction
261 264 265 268 270 269 269 269 270 270 270 271 274 276 275 275 276 277 275 277 279 279 280 280 281 281 281 282 282 282 283 284 285 286 286 286 286 286
265 268 269 271 270 270 271 270 271 272 272 271 272 275 278 276 275 277 277 278 279 280 281 281 282 283 283 282 283 283 283 284 286 287 288 288 288 287
267 268 268 269 269 269 271 272 274 274 274 273 274 276 278 277 276 277 277 278 281 283 281 282 282 284 283 284 283 283 283 284 287 289 289 288 290 290
269 270 270 268 270 272 272 272 273 273 275 276 277 277 278 279 278 277 278 280 282 283 284 282 284 284 283 282 283 284 284 286 288 288 288 289 290 291
268 270 271 270 270 274 274 275 274 274 276 279 278 278 279 280 279 279 280 281 282 282 282 282 283 286 285 284 285 284 285 288 288 288 288 289 290 290
269 270 272 273 273 275 277 278 278 276 277 279 280 280 281 282 282 283 283 283 281 282 283 283 283 285 285 285 285 286 287 288 288 288 289 289 289 289
270 271 274 274 275 275 277 279 278 279 279 280 282 281 282 283 284 285 285 283 281 282 282 284 285 287 286 285 286 287 289 289 289 290 290 290 290 290
272 273 275 274 274 275 277 279 279 280 280 281 283 284 283 284 284 286 285 284 285 283 282 283 285 286 287 287 287 287 289 290 290 290 290 290 292 292
273 274 275 276 276 277 279 280 279 280 281 282 283 283 285 285 285 285 286 286 286 284 283 284 285 285 286 287 287 289 289 289 289 290 291 291 293 292
279 278 278 278 279 280 281 282 282 283 282 282 282 283 285 286 286 287 287 286 284 285 286 285 284 286 286 286 287 289 290 290 291 292 293 293 293 294
280 280 280 280 281 282 283 283 284 284 283 283 283 283 285 286 286 287 287 287 285 287 287 287 287 288 288 287 287 289 290 291 292 293 293 294 295 295
284 282 281 282 283 283 283 284 284 285 285 285 284 284 284 285 286 287 287 286 285 286 286 287 287 287 287 287 287 290 290 291 292 293 294 294 295 295
286 285 285 285 285 284 284 285 285 285 285 285 285 285 286 286 287 286 285 285 285 285 286 286 285 286 287 287 287 289 290 290 291 292 293 294 295 295
286 286 287 287 287 287 286 286 287 286 286 286 285 285 285 287 287 286 285 285 285 286 286 286 285 285 286 287 288 289 290 291 291 292 292 293 294 295
286 287 287 286 286 286 286 287 286 286 287 286 286 286 286 287 286 286 286 285 285 285 285 285 285 286 287 287 288 288 288 288 289 291 293 293 294 295
286 286 286 286 286 287 287 287 287 287 287 287 287 287 287 286 286 286 285 285 285 285 285 284 284 286 287 287 286 286 286 287 289 291 292 293 294 294
287 287 286 286 286 286 287 287 287 287 287 287 287 287 287 286 285 285 285 285 284 284 284 284 285 286 286 286 285 285 286 288 289 290 292 293 294 294
288 288 287 286 286 286 286 287 287 287 287 287 287 287 286 285 285 285 284 284 284 283 283 283 284 285 285 286 286 287 287 289 290 291 292 292 292 293
288 288 288 287 287 286 286 286 286 286 286 286 286 286 286 285 285 285 283 282 283 282 282 282 284 285 284 285 286 287 288 289 291 292 292 292 292 292
289 288 288 287 287 286 286 286 286 286 286 286 285 285 285 284 284 283 282 281 281 282 281 281 283 284 285 286 287 288 289 290 291 292 292 291 291 292
289 288 288 287 286 285 285 285 286 286 286 285 285 285 284 283 282 282 282 281 280 281 281 282 283 285 286 287 288 288 288 290 291 291 291 291 291 292
290 289 288 288 287 286 286 286 286 285 285 284 284 284 284 282 282 282 281 281 282 282 281 281 282 283 285 285 286 287 287 289 290 290 291 292 292 293
289 289 289 288 287 286 287 287 286 286 285 285 284 284 283 283 281 280 280 281 281 280 280 280 281 283 284 285 285 286 287 288 289 290 291 292 293 294